Location: Perryvale
(54.4667°N, 113.3833°W)
Time: 22:47:02
(UTC+00:00)

Vanguard 1 Rocket - Pass Details

Date: 24 May 2024
Orbit: 649 x 4221 km, 34.3° (Epoch: 13 June)

Event Time Altitude Azimuth Distance (km) Brightness Sun altitude
Rises 13:45:15 0° 191° (S) 8,442 12.1 19.0°
Reaches altitude 10° 13:55:06 10° 174° (S) 7,160 12.0 20.4°
Maximum altitude 14:06:27 16° 145° (SE) 5,959 12.1 22.1°
Drops below altitude 10° 14:15:37 10° 114° (ESE) 5,678 12.7 23.4°
Sets 14:21:36 0° 96° (E) 6,031 13.0 24.3°
